EST,Max TemperatureF,Mean TemperatureF,Min TemperatureF,Max Dew PointF,MeanDew PointF,Min DewpointF,Max Humidity, Mean Humidity, Min Humidity, Max Sea Level PressureIn, Mean Sea Level PressureIn, Min Sea Level PressureIn, Max VisibilityMiles, Mean VisibilityMiles, Min VisibilityMiles, Max Wind SpeedMPH, Mean Wind SpeedMPH, Max Gust SpeedMPH,PrecipitationIn, CloudCover, Events, WindDirDegrees
2013-1-1,26,24,21,14,13,11,68,63,57,30.19,30.15,30.10,10,9,9,15,7,20,T,8,Snow,334
2013-1-2,30,26,22,21,18,13,75,69,62,30.18,30.14,30.11,10,10,9,17,9,24,T,8,Snow,243
2013-1-3,31,27,22,25,21,13,81,73,65,30.19,30.10,30.03,10,7,2,17,11,24,0.01,8,Snow,267
2013-1-4,34,31,27,25,22,18,75,69,63,30.19,30.11,30.06,10,10,10,23,14,31,0.00,5,,251
2013-1-5,39,30,20,34,28,19,92,81,69,30.23,30.10,29.93,10,8,3,29,10,38,0.09,6,Rain,195
2013-1-6,39,35,30,34,29,23,89,77,64,30.31,29.98,29.83,10,7,0,21,11,30,0.06,8,Rain-Snow,297
2013-1-7,38,35,31,30,26,22,78,69,59,30.30,30.21,30.08,10,10,9,30,18,38,0.00,3,,211
2013-1-8,40,36,32,31,29,25,82,73,64,30.18,30.12,30.04,10,8,4,22,10,28,0.00,3,,191
2013-1-9,45,41,36,35,30,25,79,64,49,30.43,30.16,29.97,10,10,10,25,16,36,0.01,2,,258
2013-1-10,45,35,25,33,26,22,85,67,49,30.54,30.38,30.03,10,9,4,22,8,29,0.14,3,Rain,112
2013-1-11,53,45,37,48,43,34,93,85,77,30.01,29.78,29.69,10,4,0,24,15,31,0.84,7,Fog-Rain,168
2013-1-12,53,45,37,46,39,29,83,72,60,29.97,29.85,29.73,10,10,10,25,14,37,T,2,Rain,222
2013-1-13,37,30,23,31,26,16,89,79,68,30.12,29.95,29.84,10,7,1,20,9,28,0.08,8,Rain-Snow,314
2013-1-14,28,24,19,15,14,12,84,71,57,30.45,30.36,30.17,10,9,2,20,7,30,0.01,6,Snow,281
2013-1-15,31,28,25,19,16,12,75,63,50,30.43,30.33,30.14,10,10,10,13,6,17,T,7,,189
2013-1-16,36,29,22,28,22,15,84,66,47,30.11,29.93,29.76,10,10,7,29,15,37,T,6,Snow,233
2013-1-17,35,28,21,23,14,7,63,57,50,30.38,30.21,29.98,10,10,9,22,13,32,T,7,Snow,312
2013-1-18,42,30,18,31,19,7,81,67,52,30.42,30.21,29.87,10,8,1,32,15,41,0.02,6,Snow,173
2013-1-19,44,38,31,35,32,16,76,57,38,29.87,29.76,29.59,10,10,10,37,17,52,T,6,,222
2013-1-20,45,30,15,13,9,4,84,69,53,30.24,30.12,29.73,10,4,2,47,23,18,0.04,8,Snow,302
2013-1-21,18,11,4,9,2,-6,80,67,54,30.21,30.08,30.02,10,2,0,23,14,32,0.10,8,Snow,299
2013-1-22,10,7,3,3,-1,-8,80,73,66,30.33,30.24,30.15,8,2,0,18,10,22,0.12,8,Snow,317
2013-1-23,19,12,5,14,7,0,83,75,67,30.32,30.18,30.05,10,2,0,24,9,29,0.22,8,Snow,326
2013-1-24,16,10,4,9,4,0,84,69,53,30.66,30.47,30.24,10,9,1,13,5,16,T,2,Snow,56
2013-1-25,26,20,14,20,13,4,88,76,64,30.47,30.12,29.94,10,3,0,16,9,23,0.35,8,Fog-Snow,135
2013-1-26,30,25,20,22,18,12,81,72,63,30.43,30.27,30.08,10,8,1,14,6,16,0.02,8,Snow,316
2013-1-27,32,28,24,28,22,16,85,74,63,30.43,30.23,30.00,10,6,0,20,10,25,0.06,7,Rain-Snow,130
2013-1-28,43,37,30,39,32,28,96,86,76,30.01,29.92,29.80,10,5,0,18,7,23,0.17,8,Fog-Rain,162
2013-1-29,59,46,32,56,45,28,96,89,82,29.92,29.62,29.39,10,2,0,29,13,39,2.48,8,Fog-Rain-Thunderstorm,162
2013-1-30,50,37,24,48,33,18,100,88,75,29.42,29.30,29.13,10,4,1,28,10,36,0.50,8,Rain-Snow,333
2013-1-31,24,21,17,18,12,10,80,71,62,29.96,29.69,29.41,8,2,0,28,16,38,0.16,8,Snow,292